Theta_e
348 347 345 347 348 350 349 350 350 351 352 350 353 350 350 351 352 351 350 349 349 350 351 350 350 350 348 346 347 347 348 349 348 347 347 348 351 356 362 361 361 360 359 359 358 358 358 358 358 358 358 358 358 358 358 358 358 358 358 358 357 357 356 356 356 356 357 356 357 357 357 358 357 357 358 358 357 357 356 356 356 356 356 355 355
347 345 345 346 346 348 349 349 348 348 351 350 350 351 350 350 350 350 350 351 352 350 356 348 345 346 346 346 347 348 349 349 349 348 348 350 351 356 363 362 362 361 361 360 360 359 360 359 359 359 359 358 358 359 359 359 359 359 358 357 357 357 357 357 356 356 356 356 356 357 356 357 357 358 358 358 358 357 356 356 356 356 356 356 355
348 346 346 346 346 347 347 347 348 348 350 351 351 352 352 352 352 352 353 353 352 352 354 347 343 342 346 346 347 348 349 350 350 350 349 349 350 350 357 363 363 362 362 361 361 360 360 360 360 359 359 359 359 360 360 359 359 358 358 358 357 356 356 356 357 356 357 357 357 357 357 357 357 357 357 357 357 356 356 356 356 356 356 355 356
349 347 347 347 346 346 346 347 348 348 351 352 352 354 355 356 357 357 357 356 352 351 353 347 343 342 344 345 347 347 348 349 350 351 350 349 349 350 352 357 363 363 363 363 363 362 361 361 361 361 361 361 361 360 360 360 360 360 359 359 359 359 359 358 357 358 358 357 357 357 358 358 357 357 357 356 356 356 356 356 356 356 356 356 356
349 349 354 347 347 345 347 351 352 351 352 356 357 354 352 352 350 355 352 353 349 347 354 345 342 343 343 344 346 347 348 348 349 350 350 351 349 350 351 354 355 362 364 363 363 363 363 362 362 362 362 362 362 362 362 362 361 361 361 360 360 359 360 359 359 359 359 359 359 359 359 358 358 358 358 357 357 357 356 356 356 356 356 356 356
349 349 352 349 350 349 348 349 351 354 356 357 351 351 351 351 353 353 358 353 349 347 347 343 344 345 343 342 344 346 347 347 347 348 349 349 350 350 351 352 353 354 356 363 364 364 364 363 363 363 363 363 363 363 363 363 362 362 362 362 361 362 362 361 361 360 361 361 361 361 361 361 361 360 360 359 359 358 358 358 358 357 357 357 357
352 352 350 349 350 351 350 352 353 357 356 356 354 353 351 352 355 354 351 348 350 352 350 343 345 344 342 342 342 344 346 346 347 347 347 347 348 349 350 350 351 352 354 353 360 362 364 364 364 364 364 364 364 364 364 364 363 363 363 363 363 363 363 363 362 362 362 362 362 362 362 362 362 362 362 361 360 360 360 360 360 359 360 359 359
355 355 351 350 350 350 351 354 356 356 354 354 360 354 354 353 354 355 348 348 350 345 346 344 344 343 345 343 342 347 344 344 345 346 346 346 346 346 347 348 349 349 357 352 352 355 360 363 365 365 364 365 365 366 366 366 365 365 365 365 365 366 365 364 364 363 364 364 363 364 363 364 363 363 363 362 362 362 362 362 361 360 360 360 360
355 358 354 353 351 352 353 356 359 356 353 354 351 356 352 354 351 357 351 347 347 346 343 344 343 343 344 345 344 347 342 343 344 344 347 345 344 344 345 345 347 356 352 352 351 351 354 357 360 365 366 365 365 366 367 367 367 367 367 366 367 367 367 367 366 366 365 366 365 365 365 365 365 364 364 363 363 363 363 363 362 362 360 359 360
356 359 356 355 353 352 353 355 358 356 354 352 351 353 351 350 351 352 357 349 347 346 345 343 346 345 343 343 345 344 340 341 343 353 345 345 345 345 345 345 346 346 348 350 350 350 349 352 356 359 364 366 365 364 365 367 368 368 367 367 367 368 368 367 367 367 367 366 366 366 366 366 365 365 365 364 364 364 364 363 362 361 360 359 360
359 361 356 356 354 353 353 357 358 353 352 351 350 353 355 350 354 357 355 351 351 348 346 346 344 344 341 340 342 344 343 343 347 347 344 344 346 350 349 348 348 348 348 350 351 350 349 349 348 348 350 357 362 365 366 369 369 369 368 367 367 366 367 368 368 368 368 368 368 368 367 367 366 366 366 366 366 365 364 364 362 362 362 362 360
361 359 355 356 353 354 355 358 357 352 351 351 348 348 350 353 354 358 352 351 352 348 344 346 343 340 350 347 341 341 342 350 347 345 347 343 343 347 347 347 348 349 351 352 353 354 352 351 355 351 350 352 357 360 362 364 367 370 370 371 370 368 368 369 368 369 369 369 369 368 367 367 366 366 366 366 365 364 364 364 363 363 362 361 361
361 357 356 364 355 354 354 356 357 356 354 352 352 353 356 359 353 353 355 347 345 348 344 340 337 336 337 337 338 342 351 353 347 344 342 343 342 341 343 345 344 344 347 350 352 354 354 354 353 352 352 350 351 355 357 360 363 364 366 368 369 369 369 370 371 370 370 370 370 368 367 366 366 366 365 364 364 364 364 364 363 362 361 361 361
360 356 359 357 354 355 354 355 356 353 356 359 361 365 353 352 350 347 348 349 344 348 344 339 335 333 332 333 336 337 343 348 344 344 342 342 341 340 339 341 341 342 343 345 346 349 351 353 354 354 352 351 350 349 350 351 354 359 362 365 367 369 369 371 372 372 371 371 370 368 365 364 364 364 364 364 364 364 364 363 361 360 360 359 358
360 361 359 358 356 355 355 354 354 359 353 352 351 351 352 352 351 348 347 347 351 353 346 339 335 340 337 334 328 329 336 334 338 341 342 342 340 338 339 337 339 341 342 343 343 344 346 350 352 352 352 351 350 350 351 357 357 364 364 362 362 365 367 369 370 371 369 368 367 365 364 364 365 364 364 365 364 364 362 360 359 358 355 354 353
361 362 359 358 356 355 357 355 355 357 352 352 352 351 350 352 351 353 348 341 343 342 353 344 342 336 330 332 330 329 325 327 331 337 340 341 341 340 340 338 337 337 341 341 342 344 345 349 351 351 352 352 352 352 354 354 359 366 370 371 368 366 367 371 369 367 366 366 366 365 366 365 365 365 365 364 364 362 361 359 358 355 352 350 348
360 360 361 358 357 356 355 355 355 355 353 351 351 351 353 353 351 353 346 343 344 342 345 349 342 344 340 333 327 324 325 328 333 332 336 336 337 338 343 343 338 337 340 339 341 343 344 345 348 350 351 352 352 353 353 352 353 362 368 374 373 368 368 369 365 365 365 366 367 367 366 365 365 365 364 364 363 361 359 356 355 355 351 349 347
358 359 360 360 357 356 353 353 355 356 354 351 351 353 351 351 352 351 348 346 345 339 341 349 353 356 343 340 336 331 329 330 330 326 335 342 341 343 344 340 338 338 338 338 339 339 349 346 346 347 349 349 349 350 350 350 361 363 361 357 374 371 368 365 362 364 366 366 367 367 366 366 365 364 363 363 362 360 357 355 352 350 349 346 345
359 358 359 360 356 355 354 354 355 354 360 352 351 352 353 352 354 352 349 355 344 340 341 345 342 345 353 351 351 347 336 333 328 332 326 331 335 338 339 337 335 334 336 337 338 339 340 346 347 346 346 348 350 351 352 358 371 371 372 373 367 366 362 359 361 363 365 366 367 366 366 366 364 363 363 362 360 358 356 353 350 348 346 344 344
358 357 359 360 358 355 354 355 355 355 359 353 349 350 352 354 358 354 356 353 344 343 343 342 340 341 352 350 349 346 340 342 334 333 331 327 330 336 337 338 337 335 337 336 337 338 336 340 346 345 345 347 350 355 356 356 355 355 359 363 367 365 362 360 360 361 364 366 367 367 367 365 364 363 362 360 358 356 353 351 349 347 345 344 343
358 358 358 359 362 357 355 354 354 353 359 357 354 356 353 352 354 350 350 350 349 348 345 342 342 342 343 342 341 340 340 341 340 339 333 327 327 330 333 338 334 333 336 339 338 339 339 340 345 348 351 353 356 356 356 354 354 353 360 362 366 367 364 361 359 361 364 363 366 367 366 366 364 363 361 358 355 353 351 349 348 346 344 343 342
356 357 358 359 360 359 357 356 356 355 360 357 356 354 352 353 352 351 350 351 352 351 348 343 346 346 345 345 340 339 336 336 336 335 335 332 331 332 333 334 332 335 337 336 338 340 340 341 344 347 348 349 355 356 354 354 356 356 357 363 366 367 365 362 359 363 362 360 364 366 366 365 363 361 358 355 353 351 350 347 347 346 344 341 341
356 357 358 360 359 361 359 358 356 359 360 355 354 354 352 354 355 355 354 352 350 353 353 354 351 350 349 345 343 342 339 336 337 336 335 332 330 331 333 336 336 335 337 343 349 340 339 342 343 344 347 351 353 354 354 355 361 362 363 361 361 365 363 363 361 361 361 357 360 363 364 365 362 358 356 353 353 351 349 347 346 345 344 341 341
353 354 357 360 360 359 361 358 358 356 356 355 354 355 355 355 354 354 353 353 353 357 352 348 348 348 348 348 346 346 343 341 342 340 336 334 333 331 331 336 336 337 340 341 333 337 337 338 345 348 349 353 354 354 354 357 358 364 361 361 359 362 363 366 363 360 358 356 354 357 361 361 359 356 353 352 353 352 350 348 346 345 344 340 340
352 354 355 358 360 358 358 357 356 358 356 354 355 356 354 354 353 353 353 353 352 351 350 349 350 349 350 351 350 349 348 346 344 341 339 337 335 333 334 338 336 338 338 336 333 335 340 343 348 350 352 354 356 357 357 360 354 358 364 361 358 359 361 363 364 359 355 353 353 355 357 358 357 354 353 353 352 352 350 347 346 345 343 341 339
353 354 356 358 360 359 360 358 357 357 356 354 354 355 354 353 353 353 352 352 351 351 350 351 350 353 352 350 350 350 348 348 347 341 341 338 336 336 335 333 338 337 338 340 340 333 335 340 347 351 351 352 354 354 356 356 358 360 364 359 354 355 358 360 362 361 358 355 354 355 356 359 359 357 355 353 353 352 351 346 344 344 343 339 338
353 355 357 358 359 358 357 357 357 356 356 356 360 356 356 356 356 352 354 353 353 353 350 350 352 353 352 350 353 354 351 349 349 347 341 340 341 339 337 335 332 331 337 336 339 339 341 337 346 352 352 357 355 355 357 357 358 361 362 357 354 354 354 356 359 359 357 355 355 355 356 357 358 357 354 353 353 353 351 348 344 343 341 337 336
353 355 356 357 357 357 357 357 357 356 356 356 355 357 355 352 352 354 351 361 353 353 352 353 355 354 353 352 350 351 351 350 352 350 346 347 347 342 339 333 330 328 330 331 332 336 343 342 343 350 353 355 357 355 360 360 357 362 364 355 353 353 353 354 355 355 354 352 353 355 355 355 357 357 355 354 353 353 351 348 345 342 341 337 335
354 356 356 356 356 357 357 357 356 355 355 356 355 356 356 354 353 352 352 353 353 351 351 352 353 356 354 354 353 353 353 353 351 351 350 349 348 346 341 336 333 331 330 329 328 334 341 348 342 347 353 355 355 356 355 355 358 362 355 354 354 353 352 350 351 352 352 352 351 352 353 354 355 356 356 355 354 353 349 346 343 341 340 336 334
356 357 356 356 355 362 356 356 356 355 355 355 355 356 357 354 353 354 354 352 352 353 354 355 353 355 358 357 354 354 355 352 353 352 351 346 347 347 347 342 340 337 333 330 329 333 339 345 345 348 352 355 356 356 355 355 359 360 356 353 353 354 352 348 348 348 349 350 349 349 350 352 353 353 353 353 351 350 348 345 343 341 340 335 334
355 356 356 355 355 356 356 356 356 356 355 355 356 356 357 355 354 354 354 353 352 351 351 353 355 357 355 354 353 353 354 354 356 353 355 353 349 349 350 346 344 340 338 333 332 334 344 342 345 350 352 352 356 355 355 355 359 359 357 355 353 355 353 354 351 348 347 347 347 346 347 348 348 348 348 348 347 346 346 343 342 341 338 334 332
353 354 355 355 355 355 356 356 356 357 356 355 357 356 356 356 356 355 354 353 353 351 353 353 356 356 354 353 353 352 353 353 352 352 352 353 354 349 349 349 344 343 343 338 335 338 341 346 345 349 354 354 355 352 351 353 357 359 355 355 356 357 355 355 353 350 347 346 345 345 344 343 341 342 345 346 346 345 346 345 344 341 337 333 331
352 352 354 354 354 355 356 355 355 356 356 355 356 356 356 355 355 355 354 352 352 352 352 352 354 354 355 353 353 354 353 353 353 353 352 351 349 347 347 347 346 346 344 341 337 340 342 343 347 349 353 354 351 349 349 351 353 355 358 355 355 354 354 354 355 350 347 344 343 343 342 341 340 340 342 344 344 344 346 345 343 339 335 333 329
350 351 352 354 354 354 355 355 354 355 356 355 356 356 355 355 355 357 356 352 351 351 349 350 352 355 353 350 352 352 353 352 352 352 351 350 349 348 346 346 343 344 347 344 341 338 340 342 344 348 349 353 349 346 347 350 352 356 355 355 356 354 354 355 354 354 348 346 344 342 341 340 339 338 340 341 342 342 342 341 340 337 333 332 328
350 350 351 352 353 353 354 354 354 354 354 355 355 355 354 354 354 355 357 354 353 352 351 351 352 353 351 350 351 352 354 352 351 351 351 350 349 347 346 345 344 344 345 347 342 339 340 341 342 344 346 347 346 349 350 352 354 353 352 353 354 356 357 356 356 357 351 347 344 342 341 340 339 338 337 337 338 338 338 338 335 334 332 328 324
350 350 350 351 351 352 353 353 353 353 353 354 354 354 354 354 354 354 354 354 353 353 352 352 352 352 352 350 351 351 351 349 349 349 349 348 348 348 346 346 344 346 344 346 347 344 340 339 339 345 344 342 345 348 352 354 352 351 351 353 353 352 352 353 354 355 353 348 345 341 341 340 338 336 335 335 334 333 333 333 332 330 328 327 325
349 348 349 350 350 351 352 352 352 352 352 353 353 353 353 354 354 354 353 352 352 352 353 352 357 352 352 352 352 351 348 347 348 347 349 347 349 347 346 347 345 346 346 346 346 346 341 341 342 339 342 344 346 348 349 348 350 350 347 346 349 348 348 350 354 356 351 348 347 344 340 339 338 337 335 334 333 331 331 331 330 328 327 325 322
347 348 347 348 350 350 351 351 352 352 352 352 352 352 352 353 353 353 353 352 352 351 351 351 352 353 353 352 352 352 349 348 348 347 345 346 347 347 346 345 344 343 343 343 344 344 344 344 341 340 339 344 344 345 345 347 348 349 349 348 346 343 343 346 348 351 353 354 353 352 344 341 338 335 336 335 333 331 330 330 330 328 325 321 318
345 345 346 347 348 349 351 351 351 351 351 351 351 351 351 351 351 352 352 351 351 351 350 351 352 352 352 353 352 351 350 349 348 348 347 346 347 346 346 345 345 342 343 343 341 341 343 342 342 342 343 343 343 345 344 344 345 346 344 342 340 342 341 341 347 350 351 352 350 347 348 348 345 341 333 330 331 331 330 329 328 326 325 322 318
349 348 344 345 346 348 348 350 351 352 351 350 350 350 351 351 350 350 351 351 351 350 350 350 351 351 352 352 352 352 352 351 350 349 349 348 347 346 347 345 345 343 343 343 341 340 339 338 338 339 337 338 339 342 343 342 343 339 341 341 339 341 344 344 345 346 348 350 351 353 347 344 342 340 335 333 333 332 330 329 331 332 330 324 321
351 351 350 346 345 346 347 347 349 351 351 351 351 351 350 350 350 350 350 351 351 350 350 349 349 349 349 351 351 352 354 362 360 359 358 356 349 346 346 344 344 343 343 342 341 338 338 338 339 339 336 338 340 340 342 339 338 339 337 337 340 343 343 342 345 347 348 348 350 351 352 349 347 346 341 337 336 336 334 334 334 335 332 326 323
351 351 349 349 345 345 346 346 347 348 349 351 354 347 350 352 350 350 349 349 350 350 349 349 349 349 349 349 351 359 362 364 364 360 356 357 359 354 348 345 344 343 342 341 340 339 339 338 338 338 337 338 340 341 341 340 340 338 341 339 337 340 339 340 342 344 346 347 347 347 350 349 347 347 341 340 340 342 338 333 333 333 330 327 325
348 347 350 347 347 344 344 346 347 347 348 349 345 337 337 343 353 349 348 348 348 348 348 347 347 347 348 348 348 354 360 365 362 359 357 354 353 353 355 358 357 347 342 341 340 340 338 340 339 339 338 340 342 343 342 343 342 342 341 340 340 339 338 337 336 341 342 345 344 339 346 344 343 344 345 344 344 338 337 336 333 332 329 327 326
348 351 350 348 347 347 346 344 346 348 348 347 337 333 333 333 343 352 350 349 349 347 347 347 347 347 347 347 348 349 349 349 349 349 351 351 347 346 346 347 349 351 354 349 345 341 339 339 339 340 340 340 342 342 342 339 341 340 340 340 338 338 337 335 333 335 341 352 344 341 343 344 341 344 343 345 346 345 342 336 332 329 328 327 326
350 347 346 347 347 348 348 345 344 345 348 343 336 334 332 331 331 342 349 349 348 348 347 347 347 347 346 346 346 347 348 357 359 352 349 348 345 342 340 343 346 345 339 339 344 349 345 341 340 340 341 341 340 342 343 340 340 338 338 336 336 335 337 336 337 337 343 348 341 338 340 344 341 343 345 348 349 349 350 338 333 331 328 327 326
350 349 349 347 347 345 346 346 345 347 347 346 335 331 329 328 329 333 345 347 349 349 349 348 348 347 347 346 345 346 346 347 347 347 346 346 345 344 343 342 343 347 347 341 338 338 344 346 343 342 344 343 343 343 346 342 339 340 337 336 336 334 335 336 338 339 342 345 343 340 340 344 344 344 344 348 350 349 348 343 335 331 329 326 325
347 348 350 349 348 350 350 349 347 349 350 339 333 329 324 322 324 329 340 344 345 347 348 349 349 349 349 349 347 347 347 346 346 347 344 343 342 342 341 341 341 341 341 341 342 342 342 343 344 345 346 346 345 345 345 345 342 342 341 339 337 337 338 338 341 343 344 346 346 342 338 342 343 340 346 348 349 348 347 337 334 331 329 326 325
341 342 343 346 347 348 349 350 348 348 351 336 330 328 326 324 323 333 335 337 339 342 344 346 348 349 350 349 348 347 347 347 350 343 348 348 343 342 341 341 341 341 341 347 337 339 345 343 343 344 345 346 340 345 346 344 342 340 340 341 339 339 338 336 337 340 340 341 346 343 338 342 346 343 345 347 344 345 346 337 329 328 328 326 325
341 341 339 342 344 345 346 347 347 347 349 342 333 327 324 323 327 334 334 336 336 337 339 341 344 346 348 349 348 348 348 347 345 334 333 345 343 343 342 342 343 342 342 344 337 331 329 328 328 331 331 331 330 329 327 328 337 339 337 334 335 336 334 334 336 336 338 340 342 347 343 341 342 341 343 343 339 342 342 342 329 324 325 325 323
340 341 342 342 342 342 341 343 345 345 345 342 326 324 321 322 327 337 337 336 336 337 338 339 340 342 344 353 356 351 348 347 338 331 330 339 340 341 341 341 341 341 341 344 345 345 334 327 326 327 327 328 329 329 329 329 328 334 334 333 337 337 337 336 335 336 338 339 340 349 338 340 343 336 339 335 335 335 336 336 327 323 324 322 320
339 338 342 341 341 341 342 341 344 344 344 343 329 324 321 320 329 337 337 336 336 337 338 338 339 340 340 347 350 349 349 346 332 329 328 337 339 340 341 341 340 340 342 343 343 342 341 339 340 340 340 339 341 339 341 335 334 342 337 337 339 338 338 339 338 336 335 339 340 348 339 334 335 334 335 332 331 334 331 329 327 322 321 323 323
Wind_Speed
3 2 2 3 2 3 2 2 2 2 2 1 0 2 2 2 3 4 4 4 4 5 3 3 3 3 4 3 3 3 3 2 3 3 3 3 3 5 9 9 8 9 8 8 7 7 7 8 8 8 8 8 8 9 9 9 10 9 10 9 10 10 10 10 10 11 11 10 11 11 11 11 11 11 11 11 11 11 10 10 10 11 11 12 12
2 1 1 1 2 2 2 3 3 3 3 3 1 1 3 2 3 3 4 4 4 4 2 2 3 3 4 4 4 5 4 4 4 4 3 4 4 4 9 9 10 9 9 9 9 8 8 8 8 8 9 9 9 10 10 10 10 10 10 10 10 10 10 11 11 12 11 12 12 11 12 12 12 12 12 12 12 11 11 11 11 11 12 13 13
2 1 1 0 1 1 2 2 3 3 2 3 2 2 3 4 3 4 4 4 4 4 1 2 1 3 3 5 5 4 4 4 3 3 3 4 4 3 5 10 10 10 10 10 10 10 10 9 9 9 10 10 10 11 11 11 11 11 11 11 11 11 11 10 11 12 11 12 12 12 12 12 13 13 13 13 12 12 12 12 12 12 13 14 14
2 1 1 0 1 1 2 2 3 3 2 3 4 3 3 3 3 3 3 3 3 3 1 2 1 2 2 4 3 4 4 4 4 4 3 3 4 4 4 4 10 11 10 11 11 11 11 11 11 11 11 12 12 12 12 12 12 12 12 12 12 12 12 13 12 12 13 12 13 13 13 13 13 13 13 13 13 13 12 12 12 13 14 15 15
3 2 1 1 1 1 2 2 3 4 3 3 3 2 2 2 3 2 2 2 2 3 2 1 3 3 3 3 3 4 3 4 4 3 4 4 4 4 4 4 4 8 11 11 11 11 11 12 12 12 12 12 13 13 13 13 13 13 13 13 13 13 13 13 13 13 13 13 13 14 14 14 14 14 13 13 13 12 12 13 13 14 15 16 16
3 2 1 1 0 1 2 3 4 3 3 2 2 2 3 3 3 4 4 2 3 2 1 1 2 3 4 3 3 3 4 4 4 4 3 4 4 4 4 4 4 4 4 9 11 12 12 12 13 13 13 13 13 13 14 14 14 14 13 13 13 13 14 14 14 13 14 14 14 14 14 14 14 14 14 14 14 14 14 14 14 14 15 17 17
2 3 2 1 1 2 2 4 4 3 2 2 2 3 2 3 4 5 4 3 3 2 1 0 2 3 5 5 5 4 3 5 4 3 4 3 3 4 4 4 4 4 4 4 6 10 12 13 13 13 13 13 14 14 14 14 14 14 14 14 14 14 14 14 14 14 14 14 14 15 15 14 15 14 14 14 14 14 14 14 14 15 15 17 19
3 2 2 2 2 2 4 3 3 2 1 2 2 3 4 4 3 1 4 4 4 3 1 2 2 3 2 5 5 5 5 4 5 5 4 3 4 4 4 4 4 4 5 4 5 5 10 12 13 13 13 13 13 14 14 14 14 14 14 14 14 14 14 14 14 14 14 15 15 14 14 14 14 14 14 14 14 13 13 14 14 14 16 17 19
2 2 2 2 2 3 4 3 1 0 1 2 2 2 2 3 3 2 2 3 3 3 3 2 2 2 1 1 3 4 5 6 5 5 3 4 4 4 4 5 4 6 5 4 4 5 7 10 11 12 13 13 13 13 14 14 14 14 14 14 14 14 13 13 13 13 13 14 14 14 14 14 13 14 14 14 15 13 13 13 14 14 15 16 17
2 2 2 2 2 2 3 2 0 0 0 1 2 1 1 1 3 3 3 3 4 4 4 2 1 2 1 2 0 3 5 4 4 3 4 5 4 5 6 4 4 5 5 5 5 5 5 7 10 12 13 13 13 12 13 13 14 14 14 14 14 14 13 12 12 12 13 13 13 14 14 14 14 13 14 15 15 13 13 13 13 14 14 15 15
2 2 2 2 2 2 2 1 1 1 1 2 2 3 2 2 4 4 3 2 2 2 2 1 2 2 2 2 1 2 3 3 3 4 5 5 4 5 4 5 4 4 5 5 5 4 5 5 5 5 7 11 12 13 12 12 12 13 14 14 14 14 13 12 12 13 13 13 13 13 13 14 15 13 13 13 13 12 12 13 14 13 14 13 14
3 3 3 3 3 2 1 0 1 1 1 1 2 2 3 4 4 3 5 4 3 3 2 2 2 2 2 3 3 2 2 0 2 3 3 4 5 3 5 4 4 5 5 5 4 5 5 5 5 6 6 8 10 11 12 12 12 13 13 13 13 13 12 12 12 12 12 12 12 11 11 12 14 13 13 12 12 11 11 11 12 13 13 11 11
3 3 3 3 2 2 2 0 0 1 0 0 1 2 1 1 2 1 3 4 2 3 3 4 2 1 3 2 4 3 2 1 2 3 4 5 5 5 5 5 5 5 6 4 4 5 5 5 6 5 6 6 7 8 10 11 11 12 13 13 14 13 13 12 12 12 11 11 11 11 11 10 11 11 10 10 10 10 10 10 10 11 11 11 9
2 3 3 4 3 3 2 2 1 1 1 0 1 1 2 3 2 3 1 2 2 1 2 1 3 1 1 4 4 5 3 2 3 4 4 4 5 4 4 5 6 6 4 3 5 5 5 5 5 6 6 5 6 5 6 6 7 9 10 11 12 12 12 11 11 11 11 11 10 9 9 9 9 10 9 9 9 10 10 10 10 10 9 9 8
3 3 3 3 4 3 3 2 2 1 1 0 2 1 2 2 2 2 4 2 1 2 1 1 1 1 1 1 2 5 5 5 2 3 5 5 4 4 5 5 7 6 4 3 5 5 5 5 5 5 6 6 5 5 5 5 7 10 10 9 8 9 10 9 9 9 9 9 9 8 8 9 10 10 9 8 10 10 10 10 10 10 9 9 9
3 3 2 3 3 3 3 3 2 1 2 1 0 1 2 2 2 2 1 3 3 3 2 3 3 1 2 1 1 1 3 2 4 6 2 4 4 5 3 5 5 4 2 5 6 5 5 4 6 5 6 5 5 4 5 5 7 9 8 7 7 7 7 7 8 8 9 9 9 8 8 9 9 9 9 8 9 9 9 9 9 8 7 8 9
3 2 3 3 3 3 3 3 2 2 1 1 1 1 0 0 0 1 0 0 4 2 2 2 3 2 3 1 2 3 1 4 4 6 3 3 2 2 3 4 5 5 4 5 4 4 4 4 5 5 5 6 5 4 4 4 5 3 3 4 5 5 5 5 7 8 8 8 8 8 7 7 7 8 8 8 8 8 8 7 7 7 7 8 9
3 2 2 3 3 3 3 3 2 2 2 1 1 0 2 1 1 1 1 2 0 2 2 2 2 1 1 1 3 0 2 2 1 3 6 2 4 4 4 5 4 5 4 4 4 4 3 5 4 6 5 5 4 4 4 4 3 3 2 2 3 3 4 4 6 7 8 8 8 7 7 7 6 7 7 7 7 6 6 6 7 7 8 8 9
3 3 3 2 2 2 3 2 2 2 1 1 1 2 2 2 1 1 2 1 1 0 2 3 3 2 2 1 1 1 2 0 1 0 5 7 5 4 4 4 3 3 5 5 4 3 4 3 5 6 5 4 3 4 4 3 3 3 3 3 3 1 3 4 5 6 7 8 7 6 6 6 6 6 6 6 6 6 6 6 6 7 8 8 9
4 3 3 3 3 2 2 2 2 2 1 2 3 2 2 2 1 2 1 1 2 2 0 2 2 2 3 3 3 1 0 1 2 0 1 2 7 6 2 5 4 2 3 4 3 3 4 4 5 5 6 4 3 3 2 1 3 3 3 3 3 2 3 5 4 4 6 7 7 6 6 6 6 5 5 5 5 6 6 6 6 7 8 9 9
3 4 4 4 3 3 3 2 2 3 2 2 2 2 3 2 1 2 2 1 1 1 1 1 1 2 3 3 4 2 2 1 1 2 1 1 3 1 5 6 4 2 2 4 5 3 3 4 3 3 3 4 2 1 1 2 4 3 3 4 3 3 3 5 5 4 4 6 7 6 6 5 5 5 5 6 6 6 6 6 7 6 8 8 10
3 3 3 3 3 3 3 3 3 2 2 3 3 2 2 1 2 2 2 1 0 1 0 1 0 0 1 1 3 3 5 3 2 3 1 2 0 4 3 3 5 6 4 5 3 2 2 3 3 3 3 4 2 2 2 3 4 3 4 5 4 3 4 5 6 4 3 5 6 6 6 5 5 5 5 6 7 7 7 7 7 7 7 9 10
3 3 3 3 3 3 3 3 2 2 1 2 3 3 2 2 1 1 1 1 0 0 1 1 1 1 1 0 1 0 0 1 4 2 0 1 3 3 4 2 2 4 5 4 3 2 3 2 2 3 4 3 2 2 3 4 4 5 5 4 5 4 4 5 6 4 2 4 6 6 6 6 5 5 5 6 7 8 8 7 7 7 8 9 10
2 3 3 3 3 3 3 3 3 3 3 3 2 3 2 1 1 1 2 0 0 0 0 2 3 2 2 0 0 1 2 3 4 3 2 2 1 4 3 4 2 2 4 6 2 2 3 3 2 2 4 2 3 3 3 3 4 6 4 4 5 5 5 6 6 5 4 4 5 5 5 6 5 5 5 6 7 8 8 8 8 8 8 9 10
4 4 4 4 4 4 3 4 3 3 3 2 3 3 2 2 2 2 1 2 2 1 0 3 1 2 3 2 1 1 3 4 2 3 2 2 2 1 1 1 1 3 2 2 2 5 2 1 1 3 3 2 3 4 3 3 3 4 4 3 5 6 7 7 7 6 5 5 5 5 5 5 5 4 4 5 6 6 6 7 7 8 8 9 10
5 5 5 4 4 4 4 4 4 4 3 3 3 2 2 2 2 3 3 3 0 1 2 2 2 2 1 3 3 3 4 4 2 2 3 2 1 0 1 2 1 2 3 3 3 2 2 3 3 2 2 4 4 4 4 4 4 5 4 4 4 6 8 8 8 7 7 6 6 6 6 7 6 6 6 5 6 6 6 5 7 7 8 9 10
6 5 3 4 4 4 4 4 4 4 3 3 3 2 1 0 1 2 2 2 1 1 2 2 4 4 3 2 4 3 4 4 2 2 4 4 2 2 2 4 5 4 4 2 4 2 1 4 3 3 3 3 3 3 4 4 5 5 5 3 3 6 8 9 8 8 8 7 7 7 7 8 8 7 7 6 7 7 6 5 5 6 7 8 9
4 3 4 4 4 4 4 4 4 4 4 3 3 3 2 2 1 1 1 0 1 1 2 1 2 3 3 3 2 4 4 4 3 1 2 1 0 3 4 4 3 4 4 4 4 2 2 3 2 1 4 4 4 3 5 5 5 5 5 3 4 4 7 9 9 9 9 8 8 8 8 8 8 7 7 7 8 7 7 6 4 5 6 7 8
5 4 4 4 4 4 5 5 4 4 4 3 3 3 3 3 3 2 3 1 1 1 1 1 2 2 2 3 3 4 4 3 3 2 1 0 2 2 2 1 4 1 1 2 2 1 3 1 1 2 2 4 5 5 5 5 6 6 3 3 4 4 7 8 9 9 9 9 9 9 8 8 9 8 8 8 8 8 7 5 4 4 5 6 7
5 5 5 5 5 5 5 5 4 3 4 4 3 4 3 3 3 3 3 1 1 1 1 1 2 1 2 3 2 4 3 3 4 2 1 1 1 2 0 2 4 1 3 1 4 2 3 2 1 2 4 6 4 5 3 5 6 6 4 3 3 4 7 7 9 10 10 10 10 9 9 9 9 9 9 8 7 7 7 6 4 4 4 5 6
5 4 5 5 5 5 5 5 4 5 4 4 4 4 4 4 3 4 3 2 2 2 3 1 2 1 2 3 3 4 3 3 3 2 1 0 1 1 1 2 0 1 3 2 1 3 2 2 3 2 2 4 4 4 5 5 6 6 4 4 4 6 8 7 9 9 10 11 11 10 10 10 9 9 9 9 8 7 5 5 3 2 3 4 5
5 5 5 5 5 6 5 6 5 5 5 5 4 4 4 4 4 4 4 3 3 3 3 2 2 2 1 3 3 3 3 3 3 2 2 1 1 1 1 1 1 2 3 3 3 6 3 4 4 5 5 4 5 5 5 5 6 6 4 5 4 6 4 5 7 8 10 11 11 10 10 10 10 10 10 10 9 7 6 6 4 2 2 3 3
5 5 5 5 6 6 6 6 6 6 5 5 4 4 4 4 4 4 3 3 3 4 3 4 3 3 3 3 3 4 2 2 3 2 2 2 1 1 0 0 1 2 3 3 3 6 5 3 3 4 3 2 3 2 4 5 6 6 6 5 4 4 4 5 5 7 9 10 11 10 10 10 10 11 11 11 10 8 7 7 6 2 1 1 2
5 6 6 5 5 6 6 6 6 5 5 5 5 4 5 4 4 4 4 3 3 4 3 4 5 4 3 3 4 4 2 2 2 3 2 2 2 3 3 1 3 3 3 3 4 2 5 3 4 3 4 1 2 2 3 5 7 6 7 7 6 4 4 6 6 6 8 9 10 10 10 10 11 11 11 12 12 10 9 9 8 5 2 3 3
5 6 6 6 6 6 6 6 6 5 5 5 4 5 5 5 6 5 4 4 5 5 4 5 5 4 3 3 4 4 2 2 3 3 2 2 1 1 4 2 3 3 3 4 3 3 5 5 3 3 2 2 2 5 5 4 4 4 5 6 6 6 5 4 6 6 7 9 10 10 11 10 10 10 11 12 12 11 10 11 10 7 5 3 3
5 5 6 6 5 5 6 6 6 6 6 5 5 5 6 6 6 6 5 5 5 5 5 5 5 4 4 4 5 4 3 3 4 3 3 3 3 3 3 4 3 4 3 3 5 4 3 3 4 3 3 3 5 4 5 5 5 5 3 5 5 5 7 6 5 5 8 10 10 11 11 10 10 10 11 12 12 12 11 11 10 9 7 5 5
4 4 4 4 5 5 6 7 7 7 7 7 6 6 6 5 6 6 5 5 5 5 5 5 5 4 4 4 6 4 3 4 4 4 4 4 4 3 3 4 4 4 2 3 4 3 3 5 5 3 2 3 4 5 3 4 6 4 3 4 5 6 7 6 5 5 8 11 9 10 10 9 8 10 11 12 12 12 12 12 11 10 8 7 6
5 5 4 4 5 6 7 7 7 7 7 7 7 7 7 6 6 6 6 5 6 5 5 5 5 4 5 5 6 5 4 4 5 4 4 4 4 4 4 5 4 3 3 3 2 3 4 5 4 5 2 4 4 4 3 1 4 6 7 7 6 4 2 7 7 6 4 4 4 4 6 7 8 10 10 11 12 12 13 13 12 11 10 9 8
3 4 4 5 5 5 7 7 7 7 8 7 7 7 7 6 6 6 6 6 6 5 5 6 5 5 5 5 5 5 5 5 5 5 5 5 4 5 6 5 4 4 4 4 3 3 4 4 4 5 5 4 3 6 2 1 1 3 4 6 7 6 3 3 7 7 5 7 5 7 8 8 6 4 8 11 12 13 14 13 12 12 11 11 10
3 2 3 4 5 5 6 6 7 7 7 7 7 7 6 7 6 6 7 7 7 6 6 6 5 5 6 6 6 5 6 6 6 6 5 6 4 5 6 4 4 4 5 5 3 4 4 4 5 6 3 4 4 4 3 3 5 2 3 4 6 8 9 6 5 7 7 4 7 6 5 5 5 6 8 9 11 13 13 12 13 12 13 12 11
3 3 2 3 4 5 6 7 7 6 7 8 7 7 7 7 7 7 7 7 7 7 6 6 6 6 6 6 6 6 6 9 11 9 8 8 5 6 7 4 4 4 5 4 5 5 5 4 7 4 4 6 6 6 7 5 4 6 3 1 4 7 6 7 10 7 5 5 6 5 6 3 5 5 4 4 6 8 10 12 10 11 13 12 12
4 3 3 3 4 6 7 7 7 7 7 6 9 14 12 8 7 7 6 6 6 7 6 6 6 6 6 6 6 11 12 13 13 13 13 13 12 9 8 5 5 5 5 6 6 6 5 6 7 6 6 7 8 6 5 5 3 3 5 3 4 6 5 6 7 6 1 2 3 6 7 2 3 6 3 6 5 5 5 5 7 9 10 12 13
3 3 3 3 3 5 7 7 8 8 7 7 12 13 14 15 8 6 6 6 5 6 6 6 7 7 6 6 6 8 9 9 9 12 12 13 13 14 14 12 9 6 6 7 7 5 5 6 6 4 6 7 9 6 6 7 4 4 5 4 5 4 4 5 8 10 1 2 0 2 9 2 2 5 7 7 5 4 5 7 10 12 13 12 12
3 3 3 3 2 2 3 5 7 8 8 10 13 12 12 12 9 6 6 6 6 6 7 7 7 7 7 7 6 5 5 7 7 8 10 12 13 13 13 12 12 12 11 9 8 6 5 6 7 7 5 7 8 6 7 3 7 5 5 4 4 4 6 5 5 6 5 2 4 4 9 5 2 5 7 7 6 4 6 9 11 13 13 13 12
2 2 3 2 2 2 2 3 5 6 6 9 12 12 12 13 14 11 7 6 6 6 6 7 7 7 6 6 6 6 6 10 9 7 7 8 11 13 13 12 11 11 13 14 13 10 7 7 7 8 8 7 7 8 5 4 2 4 5 5 4 5 5 6 7 5 10 1 1 3 7 10 1 4 7 8 6 5 6 8 12 12 13 13 13
4 3 3 3 3 3 3 3 3 3 3 4 7 9 10 11 12 11 7 8 8 8 8 7 7 7 7 7 7 7 7 6 6 7 6 7 7 7 7 6 6 8 10 12 13 15 12 9 8 9 10 5 9 9 9 3 3 7 7 8 7 5 6 8 5 6 10 3 4 3 6 11 4 4 7 9 5 5 6 7 10 11 12 12 13
5 5 5 4 3 3 3 3 2 3 3 7 4 3 2 4 6 7 5 5 6 7 7 7 7 8 7 7 7 8 8 7 7 7 7 7 6 7 6 7 7 7 6 6 7 7 7 8 9 11 11 9 8 9 10 7 7 8 7 7 6 6 6 4 5 7 9 5 4 3 6 8 1 2 7 7 7 7 6 6 8 10 11 12 13
6 7 7 6 6 5 4 4 3 3 2 5 4 5 6 5 1 1 3 4 5 6 7 6 7 7 7 7 7 8 9 8 11 13 11 7 5 7 8 8 8 7 7 9 12 11 9 8 8 9 9 10 11 9 9 9 7 6 3 2 2 3 4 6 9 8 7 2 5 5 3 6 4 3 7 6 4 7 6 4 6 8 9 11 12
2 4 5 6 6 6 5 4 4 4 4 6 6 5 8 9 4 4 3 3 4 5 6 5 5 6 6 6 6 7 7 8 12 13 13 9 6 8 9 9 9 8 9 8 10 13 14 14 13 12 14 15 16 17 16 16 12 6 1 4 9 5 6 8 9 6 8 6 1 5 4 7 5 2 6 5 4 6 8 7 2 5 8 9 10
1 2 2 2 3 5 6 5 5 4 4 6 8 7 6 8 6 5 4 4 5 5 6 5 5 5 6 11 10 6 8 9 13 13 12 6 6 8 9 10 10 10 10 8 7 8 9 11 13 14 14 15 16 17 17 16 15 6 5 9 10 3 6 6 8 7 8 8 6 6 2 7 5 1 3 5 4 4 5 6 2 2 4 5 7
3 3 3 4 3 3 1 4 8 6 4 4 4 4 4 6 7 5 6 5 5 6 5 6 5 5 5 6 10 10 8 10 13 13 13 7 6 7 8 9 10 11 11 8 6 7 6 5 5 5 6 9 9 8 10 14 14 8 8 10 8 6 8 9 8 6 7 8 2 8 5 4 2 3 3 3 3 6 3 3 3 2 2 2 3
Wind_Direction
78 53 36 47 30 23 14 2 356 346 1 352 351 325 317 277 272 269 265 265 269 277 249 229 225 207 192 182 186 175 182 183 196 202 209 218 226 243 220 226 229 231 235 242 248 244 247 248 255 260 266 271 274 278 280 280 281 283 283 282 282 284 284 284 283 284 284 285 286 288 292 293 292 292 292 292 291 291 290 287 286 286 284 277 272
101 55 58 10 12 9 7 343 338 326 348 319 327 297 276 274 255 256 270 281 291 285 304 283 178 196 193 190 190 186 180 185 197 206 209 215 229 241 232 227 234 240 246 247 252 259 257 258 260 267 270 273 275 274 274 275 279 281 281 279 277 277 278 279 281 280 281 283 286 287 286 286 287 289 290 290 289 288 288 287 283 282 281 277 270
122 109 75 12 336 356 336 333 324 319 312 287 276 257 261 259 271 287 295 294 280 291 339 296 128 148 191 191 193 169 180 189 199 203 210 223 232 244 257 242 237 244 248 252 256 260 265 270 267 266 265 266 268 269 272 273 273 274 277 279 279 278 279 278 279 286 288 286 286 286 285 287 290 290 291 290 290 289 287 285 282 278 275 274 270
140 138 160 167 290 318 325 335 307 308 306 293 302 302 280 284 289 282 279 272 280 245 204 119 132 151 169 196 169 178 185 191 202 198 211 220 229 245 251 264 252 248 249 253 256 260 264 269 272 272 274 274 273 273 272 274 276 278 279 280 281 286 289 289 288 288 286 286 285 284 286 289 290 290 291 292 291 289 287 285 283 279 274 269 268
158 168 185 198 269 316 323 305 290 292 299 287 288 308 331 333 314 281 294 340 346 347 20 92 147 159 166 202 179 190 191 197 207 200 212 216 225 237 245 253 265 262 256 253 258 262 263 265 268 271 273 275 275 276 277 279 280 279 279 280 282 284 283 283 283 283 284 284 284 285 289 289 289 290 291 291 290 289 287 284 281 278 275 272 269
156 167 145 190 245 295 289 300 287 291 291 301 297 328 354 331 324 345 340 14 352 312 17 325 223 149 176 185 187 202 191 209 213 213 210 225 221 227 243 249 257 261 273 270 263 261 264 266 268 269 270 272 273 274 273 274 275 277 278 279 279 279 280 283 284 284 284 285 286 287 287 287 288 287 287 287 288 288 287 285 281 277 276 275 271
168 149 159 161 245 286 289 268 284 284 304 314 324 349 348 327 335 352 337 2 359 350 333 312 288 220 177 177 193 193 198 216 218 221 216 223 220 233 239 248 247 251 261 264 273 272 267 264 266 269 271 271 273 273 274 274 274 276 276 277 278 279 281 283 284 284 284 285 286 287 287 286 286 286 286 288 287 287 286 285 284 283 281 279 277
162 142 172 194 221 257 264 275 277 287 325 351 3 352 339 330 323 339 360 346 2 347 336 39 334 275 134 183 187 185 200 208 220 225 220 209 229 236 239 245 246 247 248 250 260 268 272 271 268 267 268 272 274 275 275 276 276 276 277 278 278 279 282 283 284 285 285 286 286 285 284 284 283 282 282 285 287 285 284 284 284 283 283 281 282
170 166 178 209 225 249 273 280 300 318 5 359 352 344 352 333 322 357 60 346 352 336 350 29 6 334 13 118 206 189 194 208 218 219 206 215 234 244 248 246 246 250 247 251 256 266 274 274 274 272 270 268 270 273 275 276 277 277 278 279 279 280 280 280 280 280 280 281 281 281 281 282 281 284 289 290 291 289 287 287 286 286 287 288 289
202 196 195 210 221 235 272 294 279 83 50 13 322 334 37 24 348 349 4 356 342 342 334 342 341 324 329 68 245 207 214 215 223 218 211 230 233 239 239 247 248 247 250 246 248 255 265 275 277 277 273 269 266 266 270 272 275 276 277 277 278 279 280 279 278 278 278 277 276 277 278 280 288 289 291 292 294 293 293 293 294 299 301 298 296
209 204 187 210 201 236 239 248 109 94 65 37 358 349 3 7 33 344 341 314 280 296 268 295 321 345 351 325 34 285 271 240 208 230 234 239 238 244 251 250 246 250 249 251 251 250 258 264 272 274 275 273 271 269 269 268 270 271 272 272 273 274 277 278 278 278 277 276 276 278 283 289 294 293 295 295 299 300 300 302 311 312 310 308 311
194 186 179 170 178 185 183 25 105 87 61 22 333 355 3 359 2 353 345 345 355 12 35 57 19 53 353 336 331 316 329 290 272 250 243 250 249 255 250 257 247 255 250 249 253 254 255 260 262 264 270 276 275 276 276 275 274 273 273 272 272 272 273 275 279 281 282 283 284 287 290 294 300 303 303 303 305 308 310 312 315 324 326 330 336
168 161 165 161 155 144 121 88 84 119 119 227 285 309 324 8 341 2 8 5 330 1 25 53 67 354 356 358 329 314 306 326 283 264 253 245 238 239 250 262 256 251 252 251 250 254 257 258 260 266 268 273 284 286 285 285 280 276 275 276 278 279 279 280 286 289 292 295 302 305 305 306 310 311 312 316 318 317 320 325 334 344 353 349 350
163 166 159 152 146 138 148 176 164 143 128 265 301 17 35 22 20 358 23 21 323 323 2 21 27 72 18 328 341 326 307 313 285 270 246 245 240 243 251 250 259 254 255 238 251 252 255 256 260 264 268 269 274 283 292 293 290 284 284 285 286 286 286 288 292 296 300 307 314 321 326 325 322 327 330 328 328 336 345 357 5 6 4 5 5
176 174 160 155 152 154 175 177 180 195 129 95 21 9 37 48 35 52 334 347 312 284 11 94 123 167 139 58 344 7 329 351 319 298 264 248 228 234 237 236 249 250 248 244 250 253 252 255 261 262 266 269 271 277 284 287 284 284 282 284 284 286 291 298 301 305 312 318 327 332 331 331 333 337 341 348 351 359 10 15 20 26 19 7 352
178 180 156 146 152 163 167 167 192 167 151 161 351 323 8 19 31 22 73 356 356 311 39 68 111 94 352 35 254 89 343 321 316 291 290 280 270 255 239 250 261 270 238 239 245 242 253 258 260 260 264 267 271 275 282 281 286 289 290 295 289 283 293 307 318 321 323 326 329 331 336 341 342 344 354 3 8 20 23 27 31 29 17 0 348
183 179 163 162 166 158 168 181 172 179 147 156 182 235 332 320 66 48 60 101 334 324 317 61 94 142 137 56 359 18 231 256 342 290 341 329 285 300 280 263 261 253 238 252 244 235 238 250 255 262 262 265 271 276 275 281 293 290 306 310 302 301 312 315 324 325 325 327 330 337 345 343 349 356 3 11 26 34 35 29 25 25 13 358 347
183 186 180 162 170 172 165 166 182 181 180 191 188 353 307 328 257 220 231 244 192 29 336 331 46 97 133 146 166 179 273 278 53 316 320 264 292 288 268 264 255 258 254 261 256 252 225 242 250 260 258 259 268 274 268 281 280 284 293 303 321 344 333 318 313 323 325 330 333 340 344 348 2 5 10 19 31 40 36 32 25 22 13 1 353
189 185 185 185 173 168 174 180 183 184 206 140 232 250 259 259 261 166 217 164 107 55 21 308 354 26 64 59 185 206 173 52 282 305 350 321 339 338 325 315 288 266 268 257 252 241 250 237 250 254 263 261 266 268 268 265 281 288 289 290 316 318 325 309 306 309 323 326 331 337 346 352 3 11 12 23 28 35 35 31 27 20 12 5 358
188 186 182 188 178 177 167 168 181 207 208 195 222 257 289 295 243 177 135 167 140 128 26 25 83 295 2 36 11 36 243 221 152 165 211 295 319 329 292 327 336 291 278 285 281 234 254 250 243 254 265 275 266 261 245 279 288 298 299 299 276 273 281 294 294 297 316 323 330 336 348 359 2 11 10 18 26 29 27 26 28 20 12 8 0
196 188 186 182 188 180 171 181 194 206 218 223 235 248 250 265 187 147 154 191 154 153 95 13 87 345 7 357 355 15 336 34 105 110 133 16 291 320 313 324 345 328 2 304 288 258 238 255 249 246 272 278 272 255 288 276 276 275 279 271 257 258 270 283 277 284 318 321 326 332 343 356 359 4 9 12 14 22 20 22 22 22 14 7 3
213 203 191 185 183 172 174 192 212 206 211 218 240 253 257 202 211 225 182 152 34 149 75 256 201 160 124 127 31 338 3 5 20 25 27 90 198 301 313 345 348 306 321 8 324 300 284 256 251 272 278 280 301 252 249 252 254 262 258 251 248 245 257 273 276 274 310 312 317 323 333 343 357 0 4 5 7 13 18 18 21 22 17 8 4
211 216 202 188 181 179 180 195 208 214 203 196 220 229 242 222 243 282 205 185 159 58 32 37 108 93 114 133 114 119 222 253 282 308 67 322 356 315 316 265 238 306 315 342 331 311 312 298 323 309 269 292 299 258 245 243 252 253 254 247 238 241 250 266 270 273 292 296 306 315 322 331 344 357 360 0 360 6 9 16 16 20 17 11 6
218 216 216 193 184 186 187 180 203 218 222 207 223 230 244 205 169 213 267 313 126 111 67 342 357 11 16 68 306 195 191 222 250 217 205 222 175 268 273 315 332 245 281 319 275 2 330 352 337 282 268 288 292 265 259 262 256 255 266 256 234 244 252 258 267 265 268 276 287 299 310 318 329 341 349 347 352 356 2 8 14 17 18 13 10
221 212 221 202 184 175 184 187 205 216 219 193 224 232 233 199 179 202 216 225 218 196 269 281 315 325 305 308 288 299 279 250 224 231 238 169 162 264 271 133 290 313 299 16 331 323 312 331 310 262 282 337 309 301 294 279 264 267 261 262 235 245 252 258 264 263 264 269 276 283 294 301 310 316 323 330 337 346 356 1 10 15 17 15 13
203 211 209 201 191 191 186 197 207 206 201 207 211 227 214 216 189 185 214 228 183 230 247 287 309 279 240 322 330 322 292 279 257 197 182 131 125 163 322 329 61 302 300 349 310 24 331 327 306 296 9 1 316 318 316 294 295 284 263 247 254 250 254 258 260 262 259 260 269 271 279 283 287 294 305 309 319 334 347 359 9 16 18 16 16
202 214 202 201 203 190 195 199 207 208 206 208 208 197 180 203 181 197 213 216 214 237 272 281 308 319 328 307 305 310 291 290 291 250 185 192 163 177 108 21 343 4 351 319 330 29 280 289 300 6 11 316 318 320 305 301 287 276 270 254 252 259 256 256 258 259 257 256 262 269 269 275 278 282 289 298 307 320 334 352 9 18 22 21 19
212 204 208 200 200 201 206 212 207 205 207 204 200 189 171 173 209 198 260 168 173 248 266 284 274 294 300 300 327 306 295 295 296 255 183 168 179 130 111 107 86 336 337 344 351 312 335 7 327 17 15 357 328 331 321 312 303 304 294 265 265 270 263 256 255 255 254 251 255 262 264 266 269 271 275 285 297 308 320 338 5 21 28 25 22
206 206 206 205 205 198 208 219 210 206 208 206 198 196 176 180 200 213 236 217 121 224 262 273 272 295 305 304 296 297 306 301 295 310 280 135 149 203 173 145 153 108 317 333 284 271 308 10 23 301 352 348 348 342 343 341 330 331 298 265 259 264 266 265 263 259 254 250 248 253 259 261 263 263 268 275 286 297 310 325 355 19 29 29 26
200 203 198 204 209 205 204 218 218 206 212 207 200 204 188 193 200 211 219 171 198 263 250 259 292 305 305 317 330 318 312 302 286 300 326 168 161 193 187 139 136 137 174 224 282 225 267 310 224 299 334 340 343 329 335 323 324 341 330 294 278 272 280 284 269 263 260 253 248 248 252 256 259 263 266 271 278 290 294 305 333 8 29 33 26
203 205 198 205 206 213 205 216 212 212 211 210 199 203 195 199 200 217 223 181 194 259 265 238 256 263 308 317 315 308 314 317 315 330 17 125 145 129 80 100 107 127 150 143 335 289 192 279 295 256 269 301 313 316 308 317 318 331 329 325 300 286 282 273 264 256 255 255 251 246 248 251 255 257 262 263 267 275 278 289 307 347 42 40 30
203 203 200 199 203 206 208 211 212 209 205 212 196 196 196 207 205 210 226 196 213 231 260 244 233 231 275 299 293 292 306 325 313 317 330 354 114 119 148 145 163 162 141 151 198 269 244 222 256 289 275 271 299 293 301 311 310 318 316 311 302 306 295 281 276 261 255 256 255 249 247 249 250 255 256 259 262 264 268 278 286 313 54 52 43
205 206 208 208 202 205 206 207 211 209 206 210 203 191 192 207 218 218 218 201 219 243 239 270 262 237 234 245 270 276 276 297 282 292 311 333 26 43 115 159 227 186 166 175 217 272 296 246 250 265 288 276 299 228 301 309 318 324 326 312 311 315 306 295 288 272 259 257 257 253 247 246 247 250 254 257 259 257 257 271 277 269 136 115 86
204 212 211 215 210 207 206 208 212 215 215 212 204 191 199 206 219 213 220 209 219 240 240 258 268 257 233 233 264 274 265 246 268 288 273 308 332 332 313 261 263 235 199 181 223 220 272 313 302 296 292 228 279 269 289 311 314 327 325 321 320 313 302 304 298 286 258 253 256 255 247 243 244 245 251 255 257 256 258 263 268 264 245 166 133
215 215 216 212 209 207 211 211 208 214 218 222 212 198 203 204 214 222 216 209 216 229 233 243 254 260 258 243 252 257 263 266 269 261 272 282 261 262 276 258 264 267 198 198 178 237 262 276 254 288 277 301 237 282 300 285 285 282 296 306 313 315 311 299 296 291 276 258 255 255 249 242 236 238 245 251 254 256 255 258 261 261 242 218 177
225 222 218 215 207 204 209 212 210 213 216 221 221 214 211 206 210 219 221 218 218 224 228 237 245 245 247 259 261 253 249 244 265 272 271 259 262 258 260 266 231 260 243 184 209 213 230 254 289 229 274 287 288 270 268 287 291 303 282 292 301 303 305 306 295 290 289 280 264 257 255 244 230 230 237 245 252 255 255 255 256 254 243 226 211
231 230 229 215 207 202 209 211 210 211 216 214 217 220 220 212 213 219 221 221 224 227 228 230 234 233 244 244 258 258 245 251 273 271 268 273 268 266 261 265 251 251 249 210 219 201 214 245 276 275 270 279 260 281 273 292 312 309 307 304 298 303 303 294 289 278 280 283 272 266 265 258 238 227 231 240 248 253 254 254 254 251 244 233 221
221 218 217 219 210 208 210 214 211 212 213 213 216 219 218 215 214 220 224 223 226 228 233 233 235 231 232 238 249 253 251 242 258 259 260 261 272 272 269 267 256 253 259 261 210 202 210 243 242 292 311 261 303 284 281 282 297 315 323 315 311 289 289 321 312 307 300 295 295 276 265 257 241 231 232 238 246 251 254 254 253 251 244 235 228
223 215 217 214 217 219 219 212 214 214 215 214 216 220 224 221 217 216 223 227 228 228 231 233 234 232 233 239 241 239 242 243 251 257 261 262 252 258 251 253 256 247 258 264 251 226 222 246 266 241 267 277 239 282 310 48 261 236 273 311 312 304 299 279 302 306 310 307 275 250 256 259 245 217 222 234 242 248 253 255 256 253 247 239 231
265 256 232 220 222 210 222 221 220 215 215 217 218 220 223 223 220 221 220 225 227 226 229 231 232 234 233 234 235 233 231 237 235 249 243 255 253 261 257 245 253 252 263 269 263 238 247 247 248 271 250 273 304 267 298 341 326 322 207 227 278 301 313 315 278 285 299 304 297 300 268 265 268 237 228 232 237 244 249 257 258 254 249 239 234
234 235 254 252 234 222 219 217 225 223 217 219 216 216 219 226 222 225 222 224 226 229 230 231 229 230 234 236 238 235 233 236 233 231 229 223 230 249 264 246 257 254 268 271 260 267 268 262 278 263 273 289 274 285 301 293 258 258 256 154 272 280 292 307 300 284 239 260 285 282 286 246 272 269 223 235 243 239 248 243 257 250 248 241 234
231 232 239 251 242 229 219 217 215 218 223 222 222 218 215 216 219 223 223 223 225 230 234 238 242 234 233 233 237 238 240 242 241 238 238 238 237 234 245 247 240 243 250 259 265 257 256 268 262 269 282 272 273 262 257 258 267 277 297 272 266 291 316 295 285 275 195 209 275 298 288 246 224 282 257 251 249 212 235 222 235 239 245 236 234
256 258 241 259 260 244 229 216 211 214 220 223 223 219 219 221 216 215 218 221 217 224 229 231 240 242 244 239 242 248 250 253 253 251 244 240 243 245 248 247 240 225 241 252 259 251 249 251 258 254 244 264 270 261 251 270 267 250 260 272 268 294 303 316 307 311 7 162 178 305 299 276 196 263 280 271 258 213 222 234 237 237 242 238 231
275 255 255 251 270 282 261 238 224 218 218 220 220 218 220 225 225 222 217 221 217 216 223 227 233 236 242 246 246 245 246 243 249 259 260 259 255 254 253 251 249 245 235 230 247 260 235 245 256 251 245 249 262 269 268 245 266 270 252 240 253 262 282 280 267 264 260 65 329 309 293 297 160 248 274 270 261 233 229 234 232 235 237 236 232
306 294 273 272 268 285 307 280 245 235 229 225 220 217 213 214 215 216 225 222 223 226 224 228 233 235 237 245 254 251 252 252 250 247 248 258 262 260 261 262 260 248 243 239 234 234 244 238 241 258 244 246 256 261 237 223 197 250 280 271 253 243 234 255 260 268 287 156 294 294 288 291 172 264 270 272 265 257 255 235 231 232 232 230 228
3 338 323 318 317 319 314 307 316 327 300 290 230 229 228 222 219 209 227 228 231 232 229 228 233 235 233 235 246 257 253 251 250 250 249 250 257 265 267 259 253 256 247 238 236 237 235 235 235 244 256 221 241 255 260 215 222 258 267 269 272 274 264 254 257 262 274 290 270 274 286 285 274 247 268 278 274 272 259 251 234 230 228 225 224
358 1 348 336 318 304 313 321 332 340 345 4 329 308 271 229 236 217 239 241 243 245 241 238 238 241 239 233 232 244 255 252 244 237 242 248 254 260 264 264 254 253 255 257 244 232 224 220 228 236 252 257 247 253 264 261 234 244 245 260 267 265 278 296 293 259 274 252 200 175 248 276 258 273 270 280 294 281 267 261 241 232 226 223 220
359 358 357 356 353 341 331 329 329 335 336 9 353 320 310 305 275 225 233 241 249 258 261 257 254 253 252 247 241 247 249 253 257 250 245 246 249 256 262 265 267 261 255 244 244 245 236 222 217 227 239 250 254 253 255 259 264 256 259 286 298 284 303 302 286 296 290 258 169 175 243 275 260 211 280 286 294 288 282 254 244 227 228 222 220
3 358 345 334 332 337 348 359 359 345 346 346 342 321 312 322 320 298 280 268 260 259 260 262 263 263 259 252 249 255 262 261 261 257 254 246 254 258 260 266 268 273 272 271 253 247 246 247 247 247 250 255 261 262 262 260 255 268 329 316 273 251 268 277 281 285 277 290 215 183 211 268 268 197 276 281 281 283 290 282 238 221 227 227 221
240 224 265 295 306 326 334 352 1 2 342 349 5 351 337 314 308 291 276 263 272 273 280 279 275 274 272 274 269 260 260 264 268 269 265 251 248 254 260 265 269 270 269 265 269 267 245 238 244 247 250 256 259 264 268 267 262 236 201 244 257 228 248 242 268 272 290 291 259 165 192 242 280 208 251 293 317 253 261 277 286 238 217 230 227
260 227 218 233 240 232 296 338 339 333 326 330 358 338 318 304 312 300 290 280 282 282 282 284 281 268 274 272 268 265 263 266 273 276 276 267 254 256 261 265 267 266 262 262 259 271 279 281 272 264 267 256 255 256 262 261 259 227 210 233 254 232 250 258 256 284 302 281 233 167 191 277 241 268 187 320 307 275 262 277 295 267 223 203 207